Flag for U.S.A. Weather past 2 weeks in Jacksonville, North Carolina, U.S.A.

Now
65 °F

Mostly cloudy.


Feels Like: 65 °F
Forecast: 44 / 66 °F
Wind: 12 mph from Northeast

Location: Jacksonville - New River


UV Index: 0 (Low)

Visibility: N/A


Pressure: 30.26 "Hg

Humidity: 54%

Dew point: 48 °F

Location of JacksonvilleLocation

Historic Weather in Jacksonville

°F

Jacksonville temperature yesterday

Maximum temperature yesterday: 66 °F (at 2:56 PM)
Minimum temperature yesterday: 37 °F (at 5:56 AM)
Average temperature yesterday: 52 °F

Past Weeks' High & Low Weather Summary

 TemperatureHumidityPressure
High85 °F (Apr 4, 12:56 PM)100% (Apr 4, 4:56 AM)30.50 "Hg (Apr 4, 4:56 AM)
Low37 °F (Apr 17, 5:56 AM)25% (Apr 4, 12:56 PM)29.57 "Hg (Apr 8, 3:59 PM)
Average63 °F71%30.06 "Hg
* Reported Apr 3 3:56 PM — Apr 18 3:56 PM, Jacksonville, Weather by CustomWeather, © 2014

Note: Actual official high and low records may vary slightly from our data, if they occured in-between our weather recording intervals... More about our weather records

Advertising

Historic Weather Conditions — Data for Previous 24 hours

 ConditionsComfort  
Time TempWeatherWind HumidityBarometerVisibility
3:56 PM
Apr 18
65 °FMostly cloudy.12 mph54%30.26 "HgN/A
2:56 PM65 °FOvercast.12 mph52%30.29 "HgN/A
1:56 PM62 °FOvercast.10 mph56%30.32 "HgN/A
12:56 PM60 °FOvercast.12 mph58%30.35 "HgN/A
11:56 AM57 °FCool.12 mph64%30.36 "HgN/A
10:56 AM55 °FOvercast.12 mph67%30.37 "HgN/A
8:56 AM48 °FSunny.10 mph80%30.38 "HgN/A
7:56 AM44 °FPartly sunny.13 mph93%30.38 "HgN/A
6:56 AM43 °FPartly cloudy.10 mph93%30.38 "HgN/A
5:56 AM44 °FPassing clouds.8 mph93%30.38 "HgN/A
4:56 AM44 °FMostly cloudy.12 mph93%30.38 "HgN/A
3:56 AM44 °FLow clouds.12 mph93%30.39 "HgN/A
2:56 AM44 °FPassing clouds.10 mph93%30.39 "HgN/A
1:56 AM45 °FClear.10 mph90%30.40 "HgN/A
12:56 AM46 °FClear.9 mph86%30.42 "HgN/A
11:56 PM
Apr 17
48 °FClear.10 mph80%30.45 "HgN/A
10:56 PM50 °FPassing clouds.10 mph77%30.45 "HgN/A
9:56 PM54 °FPartly cloudy.14 mph69%30.44 "HgN/A
8:56 PM56 °FMostly cloudy.10 mph65%30.44 "HgN/A
7:56 PM57 °FSunny.14 mph64%30.41 "HgN/A
6:56 PM62 °FPartly sunny.13 mph54%30.40 "HgN/A
5:56 PM65 °FSunny.12 mph51%30.42 "HgN/A
4:56 PM66 °FSunny.12 mph49%30.42 "HgN/A
Weather by CustomWeather, © 2014

See weather overview